• In Lithuania
  • List of Countries
  • For 7 days
  • Water Temperature
  • Satellite Maps
  • Weather Map
  • Weather Widgets
  • user-avatar
    Login

    Hourly Weather Otradnyy

    Today, 22 August, Wednesday

    Time Temperature Precipitation Wind Pressure Humidity
    00:00 +21°C° 0 mm 4 mps 740 mmHg 62%
    01:00 +20°C° 0 mm 4 mps 740 mmHg 66%
    02:00 +20°C° 0 mm 3 mps 740 mmHg 71%
    03:00 +19°C° 0 mm 3 mps 740 mmHg 76%
    04:00 +19°C° 0 mm 3 mps 740 mmHg 78%
    05:00 +19°C° 0 mm 2 mps 740 mmHg 81%
    06:00 +19°C° 0 mm 2 mps 740 mmHg 83%
    07:00 +21°C° 0 mm 2 mps 740 mmHg 75%
    08:00 +24°C° 0 mm 2 mps 740 mmHg 67%
    09:00 +25°C° 0 mm 2 mps 740 mmHg 59%
    10:00 +27°C° 0 mm 2 mps 740 mmHg 52%
    11:00 +29°C° 0 mm 1 mps 740 mmHg 45%
    12:00 +29°C° 0 mm 0 mps 740 mmHg 38%
    13:00 +31°C° 0 mm 1 mps 740 mmHg 35%
    14:00 +32°C° 0 mm 1 mps 739 mmHg 32%
    15:00 +32°C° 0 mm 2 mps 739 mmHg 29%
    16:00 +32°C° 0 mm 2 mps 739 mmHg 29%
    17:00 +32°C° 0 mm 2 mps 739 mmHg 30%
    18:00 +32°C° 0 mm 2 mps 739 mmHg 31%
    19:00 +30°C° 0 mm 2 mps 740 mmHg 33%
    20:00 +28°C° 0 mm 2 mps 740 mmHg 35%
    21:00 +27°C° 0 mm 2 mps 740 mmHg 37%
    22:00 +26°C° 0 mm 2 mps 740 mmHg 38%
    23:00 +26°C° 0 mm 1 mps 740 mmHg 39%

    Tomorrow, 23 August, Thursday

    Time Temperature Precipitation Wind Pressure Humidity
    00:00 +25°C° 0 mm 1 mps 741 mmHg 39%
    01:00 +25°C° 0 mm 2 mps 741 mmHg 43%
    02:00 +24°C° 0 mm 2 mps 741 mmHg 46%
    03:00 +22°C° 0 mm 3 mps 741 mmHg 49%
    04:00 +22°C° 0 mm 3 mps 742 mmHg 54%
    05:00 +21°C° 0 mm 3 mps 742 mmHg 58%
    06:00 +20°C° 0 mm 3 mps 742 mmHg 63%
    07:00 +22°C° 0 mm 4 mps 743 mmHg 58%
    08:00 +23°C° 0 mm 5 mps 743 mmHg 52%
    09:00 +26°C° 0 mm 5 mps 743 mmHg 46%
    10:00 +27°C° 0 mm 5 mps 743 mmHg 42%
    11:00 +28°C° 0 mm 5 mps 743 mmHg 38%
    12:00 +29°C° 0 mm 5 mps 743 mmHg 33%
    13:00 +30°C° 0 mm 5 mps 743 mmHg 32%
    14:00 +30°C° 0 mm 5 mps 743 mmHg 30%
    15:00 +32°C° 0 mm 5 mps 743 mmHg 29%
    16:00 +30°C° 0 mm 5 mps 743 mmHg 28%
    17:00 +29°C° 0 mm 5 mps 743 mmHg 28%
    18:00 +28°C° 0 mm 5 mps 743 mmHg 28%
    19:00 +27°C° 0 mm 5 mps 743 mmHg 26%
    20:00 +26°C° 0 mm 5 mps 743 mmHg 25%
    21:00 +23°C° 0 mm 5 mps 743 mmHg 23%
    22:00 +23°C° 0 mm 5 mps 743 mmHg 23%
    23:00 +22°C° 0 mm 5 mps 743 mmHg 23%

    Day after tomorrow, 24 August, Friday

    Time Temperature Precipitation Wind Pressure Humidity
    00:00 +22°C° 0 mm 5 mps 743 mmHg 23%
    01:00 +21°C° 0 mm 5 mps 743 mmHg 25%
    02:00 +21°C° 0 mm 5 mps 743 mmHg 27%
    03:00 +20°C° 0 mm 5 mps 743 mmHg 28%
    04:00 +20°C° 0 mm 5 mps 743 mmHg 31%
    05:00 +20°C° 0 mm 5 mps 743 mmHg 34%
    06:00 +20°C° 0 mm 6 mps 743 mmHg 37%
    07:00 +21°C° 0 mm 6 mps 743 mmHg 35%
    08:00 +23°C° 0 mm 7 mps 743 mmHg 33%
    09:00 +24°C° 0 mm 8 mps 743 mmHg 31%
    10:00 +27°C° 0 mm 8 mps 743 mmHg 29%
    11:00 +28°C° 0 mm 8 mps 743 mmHg 27%
    12:00 +29°C° 0 mm 8 mps 742 mmHg 25%
    13:00 +29°C° 0 mm 8 mps 742 mmHg 25%
    14:00 +31°C° 0 mm 8 mps 742 mmHg 24%
    15:00 +31°C° 0 mm 8 mps 741 mmHg 23%
    16:00 +29°C° 0 mm 7 mps 741 mmHg 25%
    17:00 +29°C° 0 mm 7 mps 741 mmHg 26%
    18:00 +28°C° 0 mm 6 mps 741 mmHg 27%
    19:00 +27°C° 0 mm 6 mps 741 mmHg 30%
    20:00 +24°C° 0 mm 6 mps 741 mmHg 34%
    21:00 +23°C° 0 mm 6 mps 741 mmHg 37%
    22:00 +22°C° 0 mm 6 mps 741 mmHg 42%
    23:00 +21°C° 0 mm 6 mps 741 mmHg 46%

    25 August, Saturday

    Time Temperature Precipitation Wind Pressure Humidity
    00:00 +21°C° 0 mm 6 mps 741 mmHg 51%
    01:00 +20°C° 0 mm 5 mps 741 mmHg 53%
    02:00 +20°C° 0 mm 5 mps 741 mmHg 55%
    03:00 +19°C° 0 mm 5 mps 741 mmHg 57%
    04:00 +19°C° 0 mm 5 mps 741 mmHg 58%
    05:00 +19°C° 0 mm 5 mps 741 mmHg 58%
    06:00 +17°C° 0 mm 5 mps 741 mmHg 59%
    07:00 +20°C° 0 mm 6 mps 741 mmHg 56%
    08:00 +21°C° 0 mm 6 mps 741 mmHg 53%
    09:00 +23°C° 0 mm 7 mps 741 mmHg 50%
    10:00 +24°C° 0 mm 7 mps 741 mmHg 46%
    11:00 +27°C° 0 mm 7 mps 741 mmHg 43%
    12:00 +28°C° 0 mm 7 mps 741 mmHg 39%
    13:00 +29°C° 0 mm 7 mps 741 mmHg 37%
    14:00 +30°C° 0 mm 7 mps 740 mmHg 35%
    15:00 +31°C° 0 mm 8 mps 740 mmHg 33%
    16:00 +30°C° 0 mm 7 mps 740 mmHg 33%
    17:00 +29°C° 0 mm 7 mps 740 mmHg 34%
    18:00 +28°C° 0 mm 7 mps 740 mmHg 35%
    19:00 +27°C° 0 mm 7 mps 740 mmHg 36%
    20:00 +26°C° 0 mm 7 mps 740 mmHg 37%
    21:00 +24°C° 0 mm 7 mps 740 mmHg 38%
    22:00 +23°C° 0 mm 7 mps 740 mmHg 40%
    23:00 +22°C° 0 mm 7 mps 740 mmHg 41%

    26 August, Sunday

    Time Temperature Precipitation Wind Pressure Humidity
    00:00 +21°C° 0 mm 6 mps 740 mmHg 42%
    01:00 +21°C° 0 mm 6 mps 740 mmHg 45%
    02:00 +20°C° 0 mm 6 mps 740 mmHg 47%
    03:00 +20°C° 0 mm 5 mps 740 mmHg 49%
    04:00 +20°C° 0 mm 5 mps 740 mmHg 52%
    05:00 +19°C° 0 mm 6 mps 740 mmHg 55%
    06:00 +19°C° 0 mm 6 mps 740 mmHg 57%
    07:00 +21°C° 0 mm 7 mps 740 mmHg 52%
    08:00 +23°C° 0 mm 8 mps 740 mmHg 47%
    09:00 +26°C° 0 mm 9 mps 740 mmHg 41%
    10:00 +28°C° 0 mm 9 mps 740 mmHg 38%
    11:00 +29°C° 0 mm 9 mps 739 mmHg 34%
    12:00 +32°C° 0 mm 10 mps 739 mmHg 31%
    13:00 +32°C° 0 mm 10 mps 739 mmHg 30%
    14:00 +32°C° 0 mm 10 mps 738 mmHg 29%
    15:00 +33°C° 0 mm 10 mps 738 mmHg 28%
    16:00 +32°C° 0 mm 9 mps 738 mmHg 30%
    17:00 +31°C° 0 mm 9 mps 738 mmHg 32%
    18:00 +29°C° 0 mm 8 mps 738 mmHg 33%
    19:00 +28°C° 0 mm 8 mps 738 mmHg 37%
    20:00 +26°C° 0 mm 8 mps 738 mmHg 41%
    21:00 +24°C° 0 mm 7 mps 739 mmHg 44%
    22:00 +23°C° 0 mm 7 mps 738 mmHg 48%
    23:00 +23°C° 0 mm 7 mps 738 mmHg 52%

    27 August, Monday

    Time Temperature Precipitation Wind Pressure Humidity
    00:00 +22°C° 0 mm 7 mps 738 mmHg 56%
    01:00 +21°C° 0 mm 6 mps 738 mmHg 57%
    02:00 +21°C° 0 mm 6 mps 738 mmHg 58%
    03:00 +21°C° 0 mm 6 mps 738 mmHg 59%
    04:00 +20°C° 0 mm 6 mps 738 mmHg 59%
    05:00 +20°C° 0 mm 6 mps 738 mmHg 59%
    06:00 +20°C° 0 mm 6 mps 738 mmHg 58%
    07:00 +22°C° 0 mm 6 mps 738 mmHg 54%
    08:00 +24°C° 0 mm 7 mps 738 mmHg 49%
    09:00 +27°C° 0 mm 8 mps 738 mmHg 45%
    10:00 +28°C° 0 mm 8 mps 738 mmHg 40%
    11:00 +31°C° 0 mm 8 mps 738 mmHg 36%
    12:00 +33°C° 0 mm 8 mps 737 mmHg 32%
    13:00 +33°C° 0 mm 8 mps 737 mmHg 31%
    14:00 +34°C° 0 mm 8 mps 737 mmHg 30%
    15:00 +35°C° 0 mm 8 mps 737 mmHg 29%
    16:00 +34°C° 0 mm 8 mps 737 mmHg 31%
    17:00 +33°C° 0 mm 7 mps 737 mmHg 32%
    18:00 +32°C° 0 mm 7 mps 737 mmHg 34%
    19:00 +30°C° 0 mm 7 mps 737 mmHg 36%
    20:00 +28°C° 0 mm 7 mps 737 mmHg 39%
    21:00 +27°C° 0 mm 7 mps 738 mmHg 41%
    22:00 +26°C° 0 mm 7 mps 738 mmHg 45%
    23:00 +24°C° 0 mm 7 mps 738 mmHg 48%
    Show more